[[{"header":{"parameterUnit":"m.s-1","parameterCategory":1,"la1":30.2991,"la2":30.254,"lo1":-89.0895,"lo2":-89.0444,"dy":0.0017,"dx":0.0017,"nx":28,"ny":28,"refTime":"2025-03-30T21:00:00:Z","depth":0,"parameterNumber":2,"parameterNumberName":"U-component_of_WINDS"},"data":[0,0,0,0,0,0,0,0,0,0,0,0,0,0,0,0,0,0,0,0,0,0,0,0,0,0,0,0,0,0,0,0,0,0,0,0,0,0,0,0,0,0,0,0,0,0,0,0,0,0,0,0,0,0,0,0,0,0,-1.9464,-1.9463,0,-1.9446,-1.9446,-1.9446,-1.9405,-1.9404,-1.9404,-1.9403,-1.9386,-1.9387,-1.9387,0,0,0,0,0,0,0,0,0,0,0,0,0,-1.9463,-1.9463,-1.9464,-1.9463,-1.9463,-1.9446,-1.9446,-1.9446,-1.9405,-1.9404,-1.9403,-1.9402,-1.9386,-1.9387,-1.9387,0,0,0,0,0,0,0,0,0,0,0,0,0,-1.9456,-1.9463,-1.9464,-1.9441,-1.9439,-1.9447,-1.9446,-1.9446,-1.9406,-1.9404,-1.9403,-1.9402,-1.9386,-1.9386,-1.9387,-1.9416,0,0,-1.9389,-1.9389,0,0,0,0,0,0,0,0,-1.9456,-1.9456,-1.9445,-1.9443,-1.944,-1.9427,-1.944,-1.9436,-1.9406,-1.9418,-1.9403,-1.9401,-1.9401,-1.94,-1.94,-1.9415,-1.9414,-1.9389,-1.9389,-1.9389,-1.9389,0,0,0,0,0,0,0,-1.9457,-1.9457,-1.9457,-1.9444,-1.9442,-1.9432,-1.943,-1.9439,-1.9417,-1.9417,-1.9414,-1.9413,-1.9399,-1.9399,-1.9399,-1.9414,-1.9389,-1.9389,-1.9389,-1.939,-1.9452,-1.9453,0,0,0,0,0,0,-1.9461,-1.9457,-1.9457,-1.9456,-1.9445,-1.9433,-1.943,-1.9432,-1.9417,-1.9413,-1.9414,-1.9411,-1.9399,-1.9398,-1.9398,-1.943,-1.9389,-1.939,-1.939,-1.945,-1.9452,-1.9453,0,0,0,0,0,0,-1.9461,-1.9461,-1.9458,-1.9456,-1.9455,-1.9434,-1.9437,-1.9433,-1.9432,-1.9414,-1.941,-1.9417,-1.9398,-1.9397,-1.9411,-1.9429,-1.939,-1.939,-1.9449,-1.9451,-1.9453,-1.9494,0,0,0,0,0,0,-1.9461,-1.9461,-1.9472,-1.9457,-1.9455,-1.9471,-1.9438,-1.9433,-1.9433,-1.9429,-1.9417,-1.9413,-1.9397,-1.9411,-1.9412,-1.9429,-1.9391,-1.9447,-1.945,-1.9452,-1.9491,-1.9498,-1.9503,0,0,0,0,0,-1.9461,-1.9484,-1.9472,-1.9473,-1.9468,-1.9472,-1.9472,-1.9452,-1.9435,-1.9445,-1.9434,-1.9414,-1.9427,-1.9413,-1.9414,-1.9431,-1.9446,-1.9449,-1.9452,-1.9489,-1.9496,-1.9503,0,0,0,0,0,0,-1.9502,-1.9482,-1.9468,-1.9488,-1.9482,-1.9466,-1.9478,-1.9461,-1.946,-1.9457,-1.9433,-1.943,-1.9447,-1.9441,-1.9425,-1.9458,-1.9433,-1.9437,-1.9461,-1.9468,-1.9474,-1.9474,-1.9391,0,0,0,0,0,-1.9514,-1.9519,-1.9501,-1.952,-1.9518,-1.9499,-1.95,-1.9485,-1.9479,-1.9476,-1.9466,-1.946,-1.9463,-1.9466,-1.9467,-1.9491,-1.9487,-1.9503,-1.9509,-1.9514,-1.9516,-1.9528,-1.9534,-1.9463,-1.9463,-1.9463,0,0,-1.9537,-1.9527,-1.9531,-1.9528,-1.9522,-1.9528,-1.9497,-1.9505,-1.9509,-1.9478,-1.9489,-1.9482,-1.9474,-1.9493,-1.9501,-1.9488,-1.9536,-1.9518,-1.9522,-1.9522,-1.9531,-1.9538,-1.9544,-1.9465,-1.9465,-1.9465,0,0,-1.9582,-1.9576,-1.959,-1.9584,-1.9576,-1.9563,-1.9567,-1.9553,-1.9546,-1.9558,-1.9534,-1.954,-1.9546,-1.9541,-1.9539,-1.9584,-1.9565,-1.9585,-1.9615,-1.9626,-1.9632,-1.9637,-1.9651,-1.9657,-1.9589,-1.9589,-1.9589,0,-1.9612,-1.962,-1.9599,-1.9609,-1.9608,-1.958,-1.9594,-1.959,-1.9583,-1.9583,-1.9569,-1.9575,-1.9568,-1.9585,-1.9596,-1.9596,-1.9599,-1.9586,-1.9633,-1.9637,-1.9641,-1.9655,-1.9661,-1.9591,-1.9591,-1.959,-1.959,0,-1.9657,-1.9663,-1.9676,-1.9669,-1.967,-1.9682,-1.9663,-1.9666,-1.9652,-1.9641,-1.9653,-1.9644,-1.9643,-1.9647,-1.9633,-1.9662,-1.9654,-1.9637,-1.9611,-1.9651,-1.9663,-1.9669,-1.9594,-1.9594,-1.9593,-1.9592,0,0,-1.9727,-1.9708,-1.9713,-1.9709,-1.9698,-1.9702,-1.9714,-1.9712,-1.9715,-1.9712,-1.972,-1.9726,-1.971,-1.9708,-1.9694,-1.9704,-1.9739,-1.9685,-1.9685,-1.9694,-1.9769,-1.978,-1.9787,-1.9727,-1.9728,-1.9729,-1.9769,0,-1.9768,-1.9785,-1.9767,-1.9787,-1.9792,-1.9766,-1.9776,-1.977,-1.976,-1.9763,-1.9753,-1.9757,-1.9736,-1.9735,-1.9744,-1.9733,-1.9753,-1.973,-1.9734,-1.9734,-1.9735,-1.9793,-1.9806,-1.9844,-1.9774,-1.9774,-1.9775,0,-1.9818,-1.9816,-1.9837,-1.9824,-1.9826,-1.9834,-1.9832,-1.9835,-1.9829,-1.9821,-1.9819,-1.9802,-1.9812,-1.9789,-1.9802,-1.9787,-1.9788,-1.9783,-1.9784,-1.9782,-1.9756,-1.9792,-1.9856,-1.9861,-1.9783,-1.9782,-1.9782,0,-1.9865,-1.9868,-1.988,-1.9878,-1.9864,-1.9871,-1.9865,-1.9857,-1.9858,-1.9856,-1.9856,-1.9856,-1.9855,-1.9856,-1.9839,-1.9824,-1.9854,-1.9829,-1.9847,-1.9848,-1.9853,-1.9853,-1.9916,-1.9857,-1.9857,-1.9857,-1.9857,0,-1.9912,-1.9925,-1.9901,-1.9909,-1.9923,-1.9903,-1.9918,-1.991,-1.9903,-1.9909,-1.9887,-1.9893,-1.9872,-1.9875,-1.9863,-1.9875,-1.9876,-1.9869,-1.9865,-1.987,-1.9871,-1.9869,-1.9865,-1.9858,-1.9858,-1.9858,-1.9857,0,-1.9966,-1.995,-1.9962,-1.9948,-1.9945,-1.9956,-1.9943,-1.995,-1.9939,-1.9947,-1.9948,-1.9931,-1.9934,-1.9918,-1.9919,-1.991,-1.9929,-1.9921,-1.9931,-1.9928,-1.9946,-1.9944,-2.0009,-2.0016,-1.9954,-1.9954,-1.9955,0,-1.9996,-2.0005,-1.9992,-1.9994,-1.999,-1.9994,-1.9994,-1.9975,-1.9976,-1.997,-1.9977,-1.9979,-1.9978,-1.9985,-1.9973,-1.9974,-1.9965,-1.9988,-1.9965,-1.9969,-1.9964,-1.9963,-1.9963,-1.9992,-1.9993,-1.9994,-1.9994,0,-2.0051,-2.0043,-2.0043,-2.0042,-2.0043,-2.0041,-2.0038,-2.0041,-2.002,-2.0023,-2.0026,-2.0026,-2.0027,-2.0028,-2.0026,-2.0021,-2.0004,-2.0002,-2.0006,-2.001,-2.0014,-2.0011,-1.9942,-2.0,-2.0,-1.9999,-1.9999,-1.9999,-2.0092,-2.0099,-2.0091,-2.0093,-2.0089,-2.0086,-2.0091,-2.0081,-2.0083,-2.0082,-2.0071,-2.0076,-2.0069,-2.0065,-2.0061,-2.0065,-2.0054,-2.006,-2.0061,-2.0063,-2.0065,-2.0015,-2.0065,-2.0065,-2.0065,-2.0064,-2.0064,0,-2.0145,-2.0138,-2.014,-2.0136,-2.0138,-2.0122,-2.0118,-2.012,-2.0125,-2.012,-2.012,-2.0124,-2.0125,-2.0114,-2.0114,-2.0119,-2.0112,-2.012,-2.0118,-2.0117,-2.0076,-2.0071,-2.0126,-2.0126,-2.0126,-2.0126,-2.0126,-2.0126,-2.0172,-2.0183,-2.0174,-2.0182,-2.0176,-2.018,-2.0179,-2.0177,-2.0173,-2.0177,-2.0178,-2.0171,-2.0163,-2.0163,-2.0164,-2.016,-2.0161,-2.0171,-2.0165,-2.0126,-2.012,-2.0114,-2.011,-2.0172,-2.0172,-2.0206,-2.0207,-2.0207]},{"header":{"parameterUnit":"m.s-1","parameterCategory":1,"la1":30.2991,"la2":30.254,"lo1":-89.0895,"lo2":-89.0444,"dy":0.0017,"dx":0.0017,"nx":28,"ny":28,"refTime":"2025-03-30T21:00:00:Z","depth":0,"parameterNumber":3,"parameterNumberName":"V-component_of_WINDS"},"data":[0,0,0,0,0,0,0,0,0,0,0,0,0,0,0,0,0,0,0,0,0,0,0,0,0,0,0,0,0,0,0,0,0,0,0,0,0,0,0,0,0,0,0,0,0,0,0,0,0,0,0,0,0,0,0,0,0,0,0.127,0.127,0,0.1237,0.1236,0.1236,0.1192,0.1191,0.1191,0.119,0.1157,0.1157,0.1157,0,0,0,0,0,0,0,0,0,0,0,0,0,0.1298,0.1298,0.127,0.127,0.1269,0.1237,0.1236,0.1236,0.1192,0.1191,0.119,0.119,0.1157,0.1157,0.1157,0,0,0,0,0,0,0,0,0,0,0,0,0,0.1278,0.1298,0.127,0.1243,0.1241,0.1237,0.1236,0.1236,0.1192,0.1191,0.119,0.1189,0.1158,0.1157,0.1157,0.1177,0,0,0.1156,0.1156,0,0,0,0,0,0,0,0,0.1279,0.1277,0.1248,0.1245,0.1242,0.1217,0.1234,0.1216,0.1193,0.1211,0.119,0.1189,0.1178,0.1176,0.1172,0.1176,0.1174,0.1156,0.1156,0.1156,0.1156,0,0,0,0,0,0,0,0.128,0.1278,0.1257,0.1247,0.1244,0.1234,0.123,0.1231,0.1201,0.1209,0.1206,0.1202,0.1177,0.1173,0.1171,0.1174,0.1156,0.1156,0.1156,0.1156,0.1194,0.1195,0,0,0,0,0,0,0.1285,0.1279,0.1258,0.1256,0.1258,0.1234,0.123,0.1226,0.1201,0.1196,0.1203,0.12,0.1174,0.1172,0.117,0.1194,0.1156,0.1156,0.1155,0.1193,0.1194,0.1196,0,0,0,0,0,0,0.1286,0.1284,0.1259,0.1267,0.1263,0.1235,0.1232,0.1226,0.1223,0.1197,0.1191,0.1205,0.1173,0.117,0.1176,0.1192,0.1155,0.1155,0.1191,0.1193,0.1195,0.124,0,0,0,0,0,0,0.1287,0.1284,0.1291,0.1267,0.1263,0.1265,0.1233,0.1227,0.1222,0.1218,0.1197,0.1192,0.1172,0.1177,0.1176,0.1191,0.1155,0.119,0.1192,0.1194,0.1237,0.1243,0.1248,0,0,0,0,0,0.1288,0.1305,0.1292,0.1289,0.127,0.1266,0.1264,0.124,0.1223,0.1231,0.1214,0.1193,0.119,0.1178,0.1176,0.1191,0.1189,0.1192,0.1194,0.1234,0.1242,0.1248,0,0,0,0,0,0,0.1331,0.1301,0.1286,0.1295,0.1284,0.1259,0.1267,0.1248,0.1241,0.1237,0.1208,0.1204,0.1214,0.1203,0.119,0.1211,0.1186,0.1189,0.1217,0.1224,0.123,0.1233,0.1155,0,0,0,0,0,0.1342,0.1341,0.1314,0.1325,0.132,0.1295,0.1292,0.1275,0.1261,0.1256,0.124,0.1229,0.1226,0.1224,0.122,0.1235,0.1231,0.1245,0.125,0.1255,0.1258,0.1268,0.1274,0.1204,0.1204,0.1204,0,0,0.1364,0.1347,0.1348,0.1333,0.1322,0.1323,0.1291,0.1292,0.1292,0.1257,0.1261,0.1249,0.1235,0.1246,0.125,0.1237,0.1276,0.1259,0.1263,0.1263,0.1271,0.1278,0.1284,0.1206,0.1206,0.1206,0,0,0.1404,0.1391,0.1399,0.1389,0.1372,0.1356,0.1358,0.1336,0.1327,0.1331,0.1305,0.1305,0.13,0.1291,0.1286,0.1325,0.1306,0.1324,0.1354,0.1364,0.1369,0.1374,0.139,0.1395,0.1327,0.1327,0.1327,0,0.1433,0.1432,0.1406,0.1409,0.1404,0.1372,0.1381,0.1373,0.1356,0.1354,0.134,0.1334,0.1321,0.1331,0.1341,0.1337,0.134,0.1327,0.137,0.1375,0.1379,0.1394,0.1399,0.133,0.1329,0.1329,0.1329,0,0.147,0.147,0.1479,0.1464,0.146,0.1466,0.1441,0.1441,0.1424,0.141,0.1415,0.14,0.1392,0.1393,0.1377,0.1401,0.1394,0.1376,0.1351,0.1389,0.1402,0.1407,0.1333,0.1332,0.1332,0.1331,0,0,0.1536,0.1507,0.1511,0.1505,0.1485,0.1485,0.149,0.1483,0.1484,0.1474,0.1479,0.1476,0.1459,0.1453,0.1436,0.1444,0.1479,0.1425,0.1424,0.1437,0.1507,0.1522,0.1529,0.1465,0.1466,0.1467,0.1509,0,0.1574,0.1581,0.1558,0.1572,0.1572,0.1543,0.1548,0.1537,0.1524,0.1523,0.1508,0.1507,0.1484,0.1481,0.1488,0.1473,0.1492,0.1469,0.1471,0.1472,0.1477,0.1535,0.1551,0.1591,0.1513,0.1514,0.1515,0,0.1618,0.1611,0.1625,0.1606,0.1606,0.1611,0.1603,0.1602,0.159,0.158,0.1575,0.1555,0.156,0.1536,0.1544,0.1529,0.1529,0.1522,0.1523,0.1523,0.1496,0.1539,0.1603,0.161,0.1523,0.1522,0.1521,0,0.1667,0.1661,0.1669,0.1664,0.1642,0.1647,0.1638,0.1625,0.1622,0.1616,0.1615,0.1609,0.1606,0.1603,0.1583,0.1567,0.1594,0.1568,0.1588,0.1588,0.1595,0.1596,0.1662,0.1593,0.1593,0.1593,0.1593,0,0.1713,0.1723,0.1691,0.1696,0.1707,0.1681,0.1693,0.1681,0.167,0.1674,0.1647,0.1651,0.1623,0.1624,0.1608,0.1619,0.1617,0.161,0.1606,0.1614,0.1615,0.1614,0.1611,0.1594,0.1594,0.1594,0.1593,0,0.1769,0.1748,0.1755,0.1734,0.1729,0.1739,0.1721,0.1726,0.1711,0.1716,0.1715,0.1693,0.1693,0.1672,0.1667,0.1657,0.1675,0.1665,0.1679,0.1677,0.1698,0.1697,0.1768,0.1776,0.17,0.1701,0.1702,0,0.18,0.1807,0.1787,0.1788,0.178,0.1781,0.1779,0.1754,0.1753,0.1741,0.1747,0.1745,0.1742,0.1744,0.1728,0.1725,0.1716,0.1741,0.1716,0.1724,0.1719,0.1719,0.1721,0.1747,0.1748,0.1749,0.1749,0,0.1858,0.1847,0.1845,0.184,0.1838,0.1832,0.1825,0.1827,0.1801,0.1801,0.1801,0.1799,0.1795,0.1794,0.1789,0.1781,0.1762,0.1757,0.1762,0.177,0.1779,0.1777,0.1696,0.1756,0.1755,0.1755,0.1755,0.1754,0.1904,0.1909,0.1897,0.1896,0.1888,0.1882,0.1886,0.1872,0.1872,0.1867,0.1852,0.1855,0.1845,0.1835,0.1829,0.1832,0.182,0.1826,0.1828,0.183,0.1835,0.1778,0.1831,0.183,0.183,0.183,0.183,0,0.1961,0.1952,0.1951,0.1943,0.1942,0.1924,0.1915,0.1917,0.1919,0.1911,0.1909,0.191,0.191,0.1894,0.1892,0.1897,0.1888,0.1897,0.1898,0.1897,0.1845,0.1842,0.1905,0.1905,0.1905,0.1905,0.1905,0.1905,0.1992,0.2001,0.199,0.1996,0.1986,0.1989,0.1986,0.1982,0.1975,0.1977,0.1977,0.1966,0.1956,0.1953,0.1952,0.1947,0.1949,0.1961,0.1954,0.1907,0.19,0.1893,0.189,0.1961,0.1961,0.2005,0.2006,0.2006]}]]